Terug naar catalogus

CZ-2D DEB

ActiefPO
NORAD 44610·DEBRIS·🇨🇳 China

Gelanceerd Oct 9, 2017 vanaf Jiuquan Satellite Launch Center

Loading…

Volgende Passages (komende 24 uur)

TLE

VersSource: Space-Track

Epoch: Sep 13, 2026, 13:54 UTC

1 44610U 17060C   26256.57971319  .00004646  00000-0  28898-3 0  9990
2 44610  98.2262 109.6725 0017149 152.7889 207.4241 15.10066895482586

Volg CZ-2D DEB in realtime met AllMySat

Download on the App Store